User: anonymous   Login
Location: Unspecified
(0.0000°N, 0.0000°E)
Time: 13:14:47
(UTC+00:00)
Language:

Tiros 10 - Orbit

View from above orbital plane
View from above orbital plane
View from above satellite
View from above satellite

Ground track
Ground track

The orbit data is extracted from the following two-line orbital elements,

1 01430U 65051A   14304.50585030  .00000224  00000-0  82876-4 0  7275
2 01430 098.0733 134.6772 0055450 282.1582 077.3399 14.39943117584970
Epoch (UTC): 31 October 2014 12:08:25
Eccentricity: 0.0055450
inclination: 98.0733°
perigee height: 719 km
apogee height: 798 km
right ascension of ascending node: 134.6772°
argument of perigee: 282.1582°
revolutions per day: 14.39943117
mean anomaly at epoch: 77.3399°
orbit number at epoch: 58497

The dashed part of the orbit path shows where the satellite is in the earth's shadow,  

DLR